Time,TemperatureF,DewpointF,PressureIn,WindDirection,WindDirectionDegrees,WindSpeedMPH,WindSpeedGustMPH,Humidity,HourlyPrecipIn,Conditions,Clouds,dailyrainin,SoftwareType,DateUTC
2013-04-22 00:01:00,59.0,13.0,-100.00,ESE,117,3.0,5.0,16,-99.99,,,-99.99,,2013-04-22 07:01:00,
2013-04-22 00:11:00,59.0,11.0,-100.00,SSE,156,1.0,3.0,15,-99.99,,,-99.99,,2013-04-22 07:11:00,
2013-04-22 00:21:00,59.0,11.0,-100.00,SE,132,2.0,4.0,15,-99.99,,,-99.99,,2013-04-22 07:21:00,
2013-04-22 00:32:00,60.0,11.0,-100.00,ESE,122,4.0,7.0,14,-99.99,,,-99.99,,2013-04-22 07:32:00,
2013-04-22 00:42:00,60.0,11.0,-100.00,ESE,110,3.0,6.0,14,-99.99,,,-99.99,,2013-04-22 07:42:00,
2013-04-22 00:52:00,59.0,10.0,-100.00,ESE,116,4.0,6.0,14,-99.99,,,-99.99,,2013-04-22 07:52:00,
2013-04-22 01:01:00,60.0,11.0,-100.00,ESE,103,3.0,5.0,14,-99.99,,,-99.99,,2013-04-22 08:01:00,
2013-04-22 01:11:00,61.0,10.0,-100.00,ESE,109,3.0,6.0,13,-99.99,,,-99.99,,2013-04-22 08:11:00,
2013-04-22 01:21:00,61.0,10.0,-100.00,ESE,105,2.0,4.0,13,-99.99,,,-99.99,,2013-04-22 08:21:00,
2013-04-22 01:32:00,60.0,9.0,-100.00,ESE,118,3.0,5.0,13,-99.99,,,-99.99,,2013-04-22 08:32:00,
2013-04-22 01:41:00,59.0,10.0,-100.00,ESE,119,3.0,5.0,14,-99.99,,,-99.99,,2013-04-22 08:41:00,
2013-04-22 01:52:00,58.0,9.0,-100.00,ESE,116,2.0,5.0,14,-99.99,,,-99.99,,2013-04-22 08:52:00,
2013-04-22 02:01:00,59.0,10.0,-100.00,ESE,121,3.0,6.0,14,-99.99,,,-99.99,,2013-04-22 09:01:00,
2013-04-22 02:11:00,58.0,9.0,-100.00,ESE,123,4.0,6.0,14,-99.99,,,-99.99,,2013-04-22 09:11:00,
2013-04-22 02:21:00,58.0,9.0,-100.00,ESE,113,3.0,5.0,14,-99.99,,,-99.99,,2013-04-22 09:21:00,
2013-04-22 02:32:00,59.0,10.0,-100.00,ENE,77,2.0,4.0,14,-99.99,,,-99.99,,2013-04-22 09:32:00,
2013-04-22 02:42:00,59.0,8.0,-100.00,East,94,2.0,5.0,13,-99.99,,,-99.99,,2013-04-22 09:42:00,
2013-04-22 03:03:00,59.0,10.0,-100.00,ESE,119,3.0,6.0,14,-99.99,,,-99.99,,2013-04-22 10:03:00,
2013-04-22 03:12:00,58.0,9.0,-100.00,SE,127,4.0,6.0,14,-99.99,,,-99.99,,2013-04-22 10:12:00,
2013-04-22 03:22:00,58.0,9.0,-100.00,ESE,113,4.0,7.0,14,-99.99,,,-99.99,,2013-04-22 10:22:00,
2013-04-22 03:32:00,59.0,10.0,-100.00,ENE,63,2.0,4.0,14,-99.99,,,-99.99,,2013-04-22 10:32:00,
2013-04-22 03:42:00,59.0,10.0,-100.00,ENE,63,2.0,4.0,14,-99.99,,,-99.99,,2013-04-22 10:42:00,
2013-04-22 03:52:00,58.0,9.0,-100.00,SSW,200,0.0,2.0,14,-99.99,,,-99.99,,2013-04-22 10:52:00,
2013-04-22 04:02:00,58.0,11.0,-100.00,WNW,297,2.0,6.0,15,-99.99,,,-99.99,,2013-04-22 11:02:00,
2013-04-22 04:12:00,58.0,12.0,-100.00,NW,309,1.0,4.0,16,-99.99,,,-99.99,,2013-04-22 11:12:00,
2013-04-22 04:22:00,57.0,15.0,-100.00,NE,39,1.0,3.0,19,-99.99,,,-99.99,,2013-04-22 11:22:00,
2013-04-22 04:32:00,57.0,15.0,-100.00,NE,39,1.0,3.0,19,-99.99,,,-99.99,,2013-04-22 11:32:00,
2013-04-22 04:42:00,57.0,13.0,-100.00,NNE,16,2.0,4.0,17,-99.99,,,-99.99,,2013-04-22 11:42:00,
2013-04-22 04:52:00,57.0,13.0,-100.00,ENE,76,1.0,3.0,17,-99.99,,,-99.99,,2013-04-22 11:52:00,
2013-04-22 05:01:00,57.0,13.0,-100.00,ESE,118,1.0,2.0,17,-99.99,,,-99.99,,2013-04-22 12:01:00,
2013-04-22 05:12:00,56.0,13.0,-100.00,SE,138,1.0,3.0,18,-99.99,,,-99.99,,2013-04-22 12:12:00,
2013-04-22 05:21:00,56.0,13.0,-100.00,West,259,1.0,3.0,18,-99.99,,,-99.99,,2013-04-22 12:21:00,
2013-04-22 05:31:00,56.0,14.0,-100.00,ESE,120,2.0,4.0,19,-99.99,,,-99.99,,2013-04-22 12:31:00,
2013-04-22 05:42:00,56.0,14.0,-100.00,ESE,120,2.0,4.0,19,-99.99,,,-99.99,,2013-04-22 12:42:00,
2013-04-22 05:52:00,56.0,13.0,-100.00,NNE,31,1.0,5.0,18,-99.99,,,-99.99,,2013-04-22 12:52:00,
2013-04-22 06:01:00,56.0,14.0,-100.00,SE,144,1.0,5.0,19,-99.99,,,-99.99,,2013-04-22 13:01:00,
2013-04-22 06:11:00,55.0,15.0,-100.00,SSE,148,3.0,5.0,20,-99.99,,,-99.99,,2013-04-22 13:11:00,
2013-04-22 06:22:00,53.0,15.0,-100.00,SE,130,3.0,5.0,22,-99.99,,,-99.99,,2013-04-22 13:22:00,
2013-04-22 06:31:00,55.0,14.0,-100.00,ESE,103,2.0,3.0,19,-99.99,,,-99.99,,2013-04-22 13:31:00,
2013-04-22 06:41:00,56.0,12.0,-100.00,ESE,105,1.0,3.0,17,-99.99,,,-99.99,,2013-04-22 13:41:00,
2013-04-22 06:52:00,57.0,11.0,-100.00,ENE,73,1.0,2.0,16,-99.99,,,-99.99,,2013-04-22 13:52:00,
2013-04-22 07:01:00,57.0,13.0,-100.00,ENE,78,2.0,4.0,17,-99.99,,,-99.99,,2013-04-22 14:01:00,
2013-04-22 07:11:00,57.0,13.0,-100.00,ENE,71,3.0,4.0,17,-99.99,,,-99.99,,2013-04-22 14:11:00,
2013-04-22 07:21:00,58.0,12.0,-100.00,East,90,3.0,5.0,16,-99.99,,,-99.99,,2013-04-22 14:21:00,
2013-04-22 07:33:00,58.0,12.0,-100.00,ENE,70,3.0,5.0,16,-99.99,,,-99.99,,2013-04-22 14:33:00,
2013-04-22 07:42:00,59.0,13.0,-100.00,East,80,3.0,5.0,16,-99.99,,,-99.99,,2013-04-22 14:42:00,
2013-04-22 07:51:00,59.0,13.0,-100.00,ESE,106,2.0,4.0,16,-99.99,,,-99.99,,2013-04-22 14:51:00,
2013-04-22 08:01:00,59.0,14.0,-100.00,South,179,1.0,3.0,17,-99.99,,,-99.99,,2013-04-22 15:01:00,
2013-04-22 08:11:00,59.0,14.0,-100.00,NNW,332,0.0,2.0,17,-99.99,,,-99.99,,2013-04-22 15:11:00,
2013-04-22 08:22:00,59.0,17.0,-100.00,SSE,148,1.0,2.0,19,-99.99,,,-99.99,,2013-04-22 15:22:00,
2013-04-22 08:33:00,59.0,18.0,-100.00,SSE,155,2.0,4.0,20,-99.99,,,-99.99,,2013-04-22 15:33:00,
2013-04-22 08:42:00,59.0,17.0,-100.00,SE,137,2.0,5.0,19,-99.99,,,-99.99,,2013-04-22 15:42:00,
2013-04-22 08:53:00,60.0,19.0,-100.00,SE,143,2.0,5.0,20,-99.99,,,-99.99,,2013-04-22 15:53:00,
2013-04-22 09:02:00,61.0,21.0,-100.00,SW,231,1.0,3.0,21,-99.99,,,-99.99,,2013-04-22 16:02:00,
2013-04-22 09:12:00,61.0,21.0,-100.00,SW,231,1.0,3.0,21,-99.99,,,-99.99,,2013-04-22 16:12:00,
2013-04-22 09:22:00,62.0,24.0,-100.00,SW,223,3.0,4.0,23,-99.99,,,-99.99,,2013-04-22 16:22:00,
2013-04-22 09:32:00,62.0,23.0,-100.00,West,266,4.0,6.0,22,-99.99,,,-99.99,,2013-04-22 16:32:00,
2013-04-22 09:42:00,62.0,23.0,-100.00,West,273,3.0,5.0,22,-99.99,,,-99.99,,2013-04-22 16:42:00,
2013-04-22 09:52:00,63.0,24.0,-100.00,West,272,3.0,7.0,22,-99.99,,,-99.99,,2013-04-22 16:52:00,
2013-04-22 10:02:00,63.0,24.0,-100.00,West,272,3.0,7.0,22,-99.99,,,-99.99,,2013-04-22 17:02:00,
2013-04-22 10:12:00,64.0,24.0,-100.00,West,275,6.0,9.0,22,-99.99,,,-99.99,,2013-04-22 17:12:00,
2013-04-22 10:22:00,65.0,24.0,-100.00,West,274,7.0,10.0,21,-99.99,,,-99.99,,2013-04-22 17:22:00,
2013-04-22 10:31:00,66.0,24.0,-100.00,West,259,5.0,10.0,20,-99.99,,,-99.99,,2013-04-22 17:31:00,
2013-04-22 10:42:00,66.0,24.0,-100.00,West,259,5.0,10.0,20,-99.99,,,-99.99,,2013-04-22 17:42:00,
2013-04-22 10:51:00,67.0,23.0,-100.00,West,262,5.0,9.0,19,-99.99,,,-99.99,,2013-04-22 17:51:00,
2013-04-22 11:01:00,68.0,23.0,-100.00,WSW,246,6.0,11.0,18,-99.99,,,-99.99,,2013-04-22 18:01:00,
2013-04-22 11:12:00,68.0,22.0,-100.00,WSW,249,8.0,12.0,17,-99.99,,,-99.99,,2013-04-22 18:12:00,
2013-04-22 11:21:00,68.0,23.0,-100.00,WSW,240,8.0,14.0,18,-99.99,,,-99.99,,2013-04-22 18:21:00,
2013-04-22 11:31:00,68.0,24.0,-100.00,WSW,251,9.0,13.0,19,-99.99,,,-99.99,,2013-04-22 18:31:00,
2013-04-22 11:42:00,68.0,27.0,-100.00,WSW,244,8.0,13.0,21,-99.99,,,-99.99,,2013-04-22 18:42:00,
2013-04-22 11:52:00,68.0,27.0,-100.00,WSW,238,9.0,16.0,21,-99.99,,,-99.99,,2013-04-22 18:52:00,
2013-04-22 12:01:00,68.0,27.0,-100.00,SW,233,9.0,14.0,21,-99.99,,,-99.99,,2013-04-22 19:01:00,
2013-04-22 12:11:00,68.0,27.0,-100.00,SW,225,9.0,15.0,21,-99.99,,,-99.99,,2013-04-22 19:11:00,
2013-04-22 12:21:00,68.0,27.0,-100.00,SW,231,9.0,14.0,21,-99.99,,,-99.99,,2013-04-22 19:21:00,
2013-04-22 12:32:00,68.0,28.0,-100.00,SW,234,10.0,16.0,22,-99.99,,,-99.99,,2013-04-22 19:32:00,
2013-04-22 12:42:00,68.0,28.0,-100.00,SW,231,9.0,14.0,22,-99.99,,,-99.99,,2013-04-22 19:42:00,
2013-04-22 12:52:00,69.0,29.0,-100.00,WSW,248,10.0,15.0,22,-99.99,,,-99.99,,2013-04-22 19:52:00,
2013-04-22 13:01:00,68.0,28.0,-100.00,WSW,239,9.0,15.0,22,-99.99,,,-99.99,,2013-04-22 20:01:00,
2013-04-22 13:11:00,68.0,28.0,-100.00,SW,229,10.0,15.0,22,-99.99,,,-99.99,,2013-04-22 20:11:00,
2013-04-22 13:22:00,68.0,29.0,-100.00,SW,231,11.0,16.0,23,-99.99,,,-99.99,,2013-04-22 20:22:00,
2013-04-22 13:31:00,68.0,29.0,-100.00,SW,225,11.0,17.0,23,-99.99,,,-99.99,,2013-04-22 20:31:00,
2013-04-22 13:41:00,67.0,29.0,-100.00,SW,226,11.0,16.0,24,-99.99,,,-99.99,,2013-04-22 20:41:00,
2013-04-22 13:51:00,68.0,31.0,-100.00,SW,224,11.0,16.0,25,-99.99,,,-99.99,,2013-04-22 20:51:00,
2013-04-22 14:01:00,68.0,31.0,-100.00,SW,224,11.0,16.0,25,-99.99,,,-99.99,,2013-04-22 21:01:00,
2013-04-22 14:11:00,68.0,30.0,-100.00,SW,236,12.0,19.0,24,-99.99,,,-99.99,,2013-04-22 21:11:00,
2013-04-22 14:21:00,67.0,29.0,-100.00,SW,235,13.0,19.0,24,-99.99,,,-99.99,,2013-04-22 21:21:00,
2013-04-22 14:32:00,67.0,28.0,-100.00,SW,225,12.0,18.0,23,-99.99,,,-99.99,,2013-04-22 21:32:00,
2013-04-22 14:42:00,68.0,29.0,-100.00,WSW,237,11.0,18.0,23,-99.99,,,-99.99,,2013-04-22 21:42:00,
2013-04-22 14:52:00,68.0,28.0,-100.00,SW,233,13.0,18.0,22,-99.99,,,-99.99,,2013-04-22 21:52:00,
2013-04-22 15:02:00,68.0,31.0,-100.00,SW,232,12.0,18.0,25,-99.99,,,-99.99,,2013-04-22 22:02:00,
2013-04-22 15:12:00,68.0,31.0,-100.00,WSW,238,11.0,17.0,25,-99.99,,,-99.99,,2013-04-22 22:12:00,
2013-04-22 15:22:00,67.0,32.0,-100.00,WSW,243,13.0,21.0,27,-99.99,,,-99.99,,2013-04-22 22:22:00,
2013-04-22 15:32:00,67.0,33.0,-100.00,WSW,247,12.0,19.0,28,-99.99,,,-99.99,,2013-04-22 22:32:00,
2013-04-22 15:42:00,67.0,34.0,-100.00,WSW,243,11.0,16.0,29,-99.99,,,-99.99,,2013-04-22 22:42:00,
2013-04-22 15:52:00,67.0,34.0,-100.00,SSW,210,11.0,14.0,29,-99.99,,,-99.99,,2013-04-22 22:52:00,
2013-04-22 16:02:00,67.0,35.0,-100.00,SSW,201,10.0,16.0,30,-99.99,,,-99.99,,2013-04-22 23:02:00,
2013-04-22 16:11:00,68.0,36.0,-100.00,SW,236,11.0,17.0,31,-99.99,,,-99.99,,2013-04-22 23:11:00,
2013-04-22 16:21:00,67.0,36.0,-100.00,WSW,247,13.0,19.0,32,-99.99,,,-99.99,,2013-04-22 23:21:00,
2013-04-22 16:32:00,68.0,36.0,-100.00,WSW,249,13.0,18.0,31,-99.99,,,-99.99,,2013-04-22 23:32:00,
2013-04-22 16:42:00,67.0,37.0,-100.00,WSW,245,14.0,18.0,33,-99.99,,,-99.99,,2013-04-22 23:42:00,
2013-04-22 16:52:00,66.0,34.0,-100.00,WSW,240,16.0,22.0,31,-99.99,,,-99.99,,2013-04-22 23:52:00,
2013-04-22 17:01:00,66.0,35.0,-100.00,WSW,241,17.0,22.0,32,-99.99,,,-99.99,,2013-04-23 00:01:00,
2013-04-22 17:12:00,66.0,35.0,-100.00,WSW,241,17.0,22.0,32,-99.99,,,-99.99,,2013-04-23 00:12:00,
2013-04-22 17:21:00,65.0,36.0,-100.00,SW,235,16.0,21.0,34,-99.99,,,-99.99,,2013-04-23 00:21:00,
2013-04-22 17:31:00,64.0,33.0,-100.00,SW,235,15.0,20.0,31,-99.99,,,-99.99,,2013-04-23 00:31:00,
2013-04-22 18:01:00,64.0,31.0,-100.00,SW,233,15.0,21.0,29,-99.99,,,-99.99,,2013-04-23 01:01:00,
2013-04-22 18:11:00,63.0,29.0,-100.00,SW,234,15.0,20.0,28,-99.99,,,-99.99,,2013-04-23 01:11:00,
2013-04-22 18:21:00,63.0,27.0,-100.00,SW,232,15.0,20.0,25,-99.99,,,-99.99,,2013-04-23 01:21:00,
2013-04-22 18:31:00,63.0,29.0,-100.00,WSW,237,14.0,20.0,28,-99.99,,,-99.99,,2013-04-23 01:31:00,
2013-04-22 18:42:00,63.0,22.0,-100.00,SW,235,14.0,20.0,21,-99.99,,,-99.99,,2013-04-23 01:42:00,
2013-04-22 18:52:00,63.0,26.0,-100.00,WSW,237,13.0,18.0,24,-99.99,,,-99.99,,2013-04-23 01:52:00,
2013-04-22 19:01:00,62.0,26.0,-100.00,WSW,237,11.0,17.0,25,-99.99,,,-99.99,,2013-04-23 02:01:00,
2013-04-22 19:12:00,61.0,32.0,-100.00,WSW,238,12.0,18.0,33,-99.99,,,-99.99,,2013-04-23 02:12:00,
2013-04-22 19:21:00,60.0,34.0,-100.00,SW,227,9.0,14.0,37,-99.99,,,-99.99,,2013-04-23 02:21:00,
2013-04-22 19:32:00,59.0,38.0,-100.00,SSW,213,7.0,13.0,46,-99.99,,,-99.99,,2013-04-23 02:32:00,
2013-04-22 19:42:00,57.0,37.0,-100.00,SSW,203,6.0,10.0,47,-99.99,,,-99.99,,2013-04-23 02:42:00,
2013-04-22 19:52:00,57.0,36.0,-100.00,South,177,5.0,10.0,45,-99.99,,,-99.99,,2013-04-23 02:52:00,
2013-04-22 20:01:00,55.0,42.0,-100.00,South,174,6.0,9.0,62,-99.99,,,-99.99,,2013-04-23 03:01:00,
2013-04-22 20:11:00,55.0,44.0,-100.00,SSE,152,5.0,10.0,66,-99.99,,,-99.99,,2013-04-23 03:11:00,
2013-04-22 20:21:00,54.0,43.0,-100.00,ESE,119,4.0,8.0,66,-99.99,,,-99.99,,2013-04-23 03:21:00,
2013-04-22 20:32:00,54.0,42.0,-100.00,SE,146,6.0,10.0,63,-99.99,,,-99.99,,2013-04-23 03:32:00,
2013-04-22 20:43:00,53.0,41.0,-100.00,SSE,153,7.0,11.0,64,-99.99,,,-99.99,,2013-04-23 03:43:00,
2013-04-22 20:52:00,53.0,43.0,-100.00,SSE,162,9.0,13.0,70,-99.99,,,-99.99,,2013-04-23 03:52:00,
2013-04-22 21:03:00,52.0,44.0,-100.00,SSE,165,10.0,13.0,74,-99.99,,,-99.99,,2013-04-23 04:03:00,
2013-04-22 21:12:00,51.0,44.0,-100.00,South,186,5.0,11.0,77,-99.99,,,-99.99,,2013-04-23 04:12:00,
2013-04-22 21:23:00,51.0,44.0,-100.00,South,188,3.0,8.0,77,-99.99,,,-99.99,,2013-04-23 04:23:00,
2013-04-22 21:32:00,51.0,44.0,-100.00,SSE,162,6.0,13.0,76,-99.99,,,-99.99,,2013-04-23 04:32:00,
2013-04-22 21:43:00,51.0,43.0,-100.00,South,189,4.0,11.0,75,-99.99,,,-99.99,,2013-04-23 04:43:00,
2013-04-22 21:52:00,51.0,43.0,-100.00,SSW,196,4.0,11.0,73,-99.99,,,-99.99,,2013-04-23 04:52:00,
2013-04-22 22:02:00,51.0,42.0,-100.00,South,177,2.0,8.0,70,-99.99,,,-99.99,,2013-04-23 05:02:00,
2013-04-22 22:12:00,52.0,39.0,-100.00,South,184,6.0,13.0,60,-99.99,,,-99.99,,2013-04-23 05:12:00,
2013-04-22 22:22:00,52.0,38.0,-100.00,South,190,6.0,11.0,58,-99.99,,,-99.99,,2013-04-23 05:22:00,
2013-04-22 22:32:00,52.0,35.0,-100.00,South,189,8.0,14.0,52,-99.99,,,-99.99,,2013-04-23 05:32:00,
2013-04-22 22:42:00,52.0,33.0,-100.00,South,181,9.0,12.0,48,-99.99,,,-99.99,,2013-04-23 05:42:00,
2013-04-22 22:52:00,53.0,32.0,-100.00,South,186,8.0,12.0,44,-99.99,,,-99.99,,2013-04-23 05:52:00,
2013-04-22 23:01:00,53.0,29.0,-100.00,South,173,6.0,10.0,40,-99.99,,,-99.99,,2013-04-23 06:01:00,
2013-04-22 23:12:00,53.0,29.0,-100.00,South,171,4.0,10.0,40,-99.99,,,-99.99,,2013-04-23 06:12:00,
2013-04-22 23:21:00,52.0,28.0,-100.00,South,170,4.0,9.0,39,-99.99,,,-99.99,,2013-04-23 06:21:00,
2013-04-22 23:32:00,52.0,27.0,-100.00,South,181,4.0,10.0,38,-99.99,,,-99.99,,2013-04-23 06:32:00,
2013-04-22 23:41:00,53.0,25.0,-100.00,South,185,6.0,12.0,34,-99.99,,,-99.99,,2013-04-23 06:41:00,
2013-04-22 23:52:00,52.0,25.0,-100.00,SSE,167,4.0,8.0,35,-99.99,,,-99.99,,2013-04-23 06:52:00,